Location: Toronto
(43.6667°N, 79.4167°W)
Time: 17:14:18
(UTC-04:00)

ISS - Visible Passes

Search period start: 22 June 2021 00:00
Search period end: 02 July 2021 00:00
Orbit: 417 x 422 km, 51.6° (Epoch: 22 June)

Date Brightness Start Highest point End Pass type
(mag) Time Alt. Az. Time Alt. Az. Time Alt. Az.
27 Jun -1.9 04:25:23 11° S 04:27:48 21° SE 04:30:26 10° E visible
28 Jun -1.4 03:39:47 12° SE 03:40:32 13° SE 03:42:11 10° ESE visible
29 Jun -3.5 04:27:04 17° SW 04:29:29 58° SE 04:32:49 10° ENE visible
30 Jun -2.8 03:41:21 30° S 03:42:07 35° SE 03:45:14 10° ENE visible
01 Jul -1.8 02:55:35 20° ESE 02:55:35 20° ESE 02:57:28 10° E visible
01 Jul -3.3 04:28:31 13° WSW 04:31:24 56° NNW 04:34:44 10° NE visible
